Hourly Data Report for October 03, 2017

All times are specified in Local Standard Time (LST). Add 1 hour to adjust for Daylight Saving Time where and when it is observed.

NELSON CS
BRITISH COLUMBIA

49°29'29.000" N
117°18'19.000" W
534.90 m
1145M29
71776
WNM

Download Data

Hourly Data (October 2017)
Hourly Data Report for October 3, 2017
Temp Definition
°C
Dew Point Temp Definition
°C
Rel Hum Definition
%
Wind Dir Definition
10's deg

Wind Spd Definition
km/h
Visibility Definition
km
Stn Press Definition
kPa
Hmdx Definition


Wind Chill Definition


Weather Definition


TIME
00:00 3.9 0.9 81 18 4   96.25     LegendNANA
01:00 3.2 0.8 84 19 6   96.28     LegendNANA
02:00 3.2 1.3 87 19 6   96.34     LegendNANA
03:00 2.9 1.2 89 22 5   96.40     LegendNANA
04:00 1.3 -0.2 90 17 5   96.42     LegendNANA
05:00 1.1 -0.3 90 17 4   96.47     LegendNANA
06:00 0.8 -0.5 91 14 5   96.51     LegendNANA
07:00 1.1 -0.1 91 18 4   96.55     LegendNANA
08:00 5.2 -1.2 63 11 2   96.58     LegendNANA
09:00 9.3 -1.3 47 6 3   96.55     LegendNANA
10:00 10.8 1.6 53 4 8   96.51     LegendNANA
11:00 12.3 2.6 51 5 9   96.46     LegendNANA
12:00 14.1 2.4 45 3 12   96.35     LegendNANA
13:00 15.9 2.0 39 3 10   96.22     LegendNANA
14:00 16.4 2.2 38 3 11   96.19     LegendNANA
15:00 16.3 1.0 35 4 13   96.11     LegendNANA
16:00 15.5 2.8 42 4 10   96.09     LegendNANA
17:00 10.2 0.7 51 12 3   96.10     LegendNANA
18:00 8.5 0.5 57 11 3   96.15     LegendNANA
19:00 7.7 -0.1 57 13 7   96.19     LegendNANA
20:00 6.7 -0.5 60 10 4   96.21     LegendNANA
21:00 5.0 -0.3 69 15 5   96.24     LegendNANA
22:00 4.1 -0.2 74 10 1   96.26     LegendNANA
23:00 2.7 -0.8 78 15 2   96.29     LegendNANA

Notes on Data Quality.

Legend

  • E = Estimated
  • M = Missing
  • NA = Not Available
  • ‡ = Partner data that is not subject to review by the National Climate Archives
Date modified: